• In Deutschland
  • Länderverzeichnis
  • Für 7 Tage
  • Wassertemperatur
  • Satellitenkarten
  • Wetterkarte
  • Widgets
  • user-avatar
    Anmelden

    Stündliche Wetter Sliwen

    Heute, 21 August, Montag

    Zeit Temperatur Niederschläge Wind Luftdruck Luftfeuchtigkeit
    00:00 +22°C° 0 mm 1 m/S 729 mmHg 66%
    01:00 +22°C° 0 mm 1 m/S 729 mmHg 68%
    02:00 +21°C° 0 mm 1 m/S 729 mmHg 70%
    03:00 +21°C° 0 mm 1 m/S 729 mmHg 71%
    04:00 +21°C° 0 mm 1 m/S 729 mmHg 71%
    05:00 +20°C° 0 mm 2 m/S 729 mmHg 72%
    06:00 +21°C° 0 mm 2 m/S 729 mmHg 67%
    07:00 +22°C° 0 mm 3 m/S 729 mmHg 63%
    08:00 +24°C° 0 mm 3 m/S 729 mmHg 59%
    09:00 +25°C° 0 mm 4 m/S 729 mmHg 54%
    10:00 +27°C° 0 mm 4 m/S 729 mmHg 49%
    11:00 +29°C° 0 mm 4 m/S 729 mmHg 43%
    12:00 +29°C° 0 mm 4 m/S 729 mmHg 41%
    13:00 +30°C° 0 mm 4 m/S 729 mmHg 39%
    14:00 +32°C° 0 mm 4 m/S 729 mmHg 37%
    15:00 +30°C° 0,2 mm 4 m/S 728 mmHg 39%
    16:00 +29°C° 0,2 mm 5 m/S 728 mmHg 42%
    17:00 +28°C° 0,2 mm 5 m/S 728 mmHg 45%
    18:00 +26°C° 0,1 mm 5 m/S 728 mmHg 51%
    19:00 +23°C° 0,1 mm 5 m/S 728 mmHg 58%
    20:00 +21°C° 0,1 mm 5 m/S 728 mmHg 64%
    21:00 +21°C° 0,1 mm 5 m/S 729 mmHg 65%
    22:00 +20°C° 0,1 mm 4 m/S 729 mmHg 65%
    23:00 +20°C° 0,1 mm 4 m/S 729 mmHg 65%

    Morgen, 22 August, Dienstag

    Zeit Temperatur Niederschläge Wind Luftdruck Luftfeuchtigkeit
    00:00 +20°C° 0,2 mm 4 m/S 729 mmHg 65%
    01:00 +19°C° 0,2 mm 4 m/S 729 mmHg 66%
    02:00 +18°C° 0,2 mm 4 m/S 729 mmHg 66%
    03:00 +18°C° 0,4 mm 4 m/S 729 mmHg 67%
    04:00 +17°C° 0,4 mm 3 m/S 729 mmHg 69%
    05:00 +17°C° 0,4 mm 3 m/S 730 mmHg 71%
    06:00 +17°C° 0,1 mm 3 m/S 730 mmHg 67%
    07:00 +18°C° 0,1 mm 3 m/S 730 mmHg 64%
    08:00 +18°C° 0,1 mm 4 m/S 731 mmHg 61%
    09:00 +20°C° 0 mm 4 m/S 731 mmHg 57%
    10:00 +21°C° 0 mm 4 m/S 731 mmHg 53%
    11:00 +22°C° 0 mm 4 m/S 732 mmHg 48%
    12:00 +23°C° 0 mm 4 m/S 731 mmHg 46%
    13:00 +23°C° 0 mm 4 m/S 731 mmHg 44%
    14:00 +25°C° 0 mm 4 m/S 731 mmHg 42%
    15:00 +25°C° 0 mm 3 m/S 731 mmHg 41%
    16:00 +25°C° 0 mm 3 m/S 731 mmHg 41%
    17:00 +25°C° 0 mm 3 m/S 731 mmHg 40%
    18:00 +23°C° 0 mm 2 m/S 731 mmHg 46%
    19:00 +20°C° 0 mm 2 m/S 731 mmHg 52%
    20:00 +19°C° 0 mm 1 m/S 731 mmHg 58%
    21:00 +19°C° 0 mm 1 m/S 731 mmHg 59%
    22:00 +18°C° 0 mm 1 m/S 731 mmHg 60%
    23:00 +16°C° 0 mm 1 m/S 732 mmHg 61%

    übermorgen, 23 August, Mittwoch

    Zeit Temperatur Niederschläge Wind Luftdruck Luftfeuchtigkeit
    00:00 +16°C° 0 mm 1 m/S 732 mmHg 61%
    01:00 +16°C° 0 mm 1 m/S 732 mmHg 61%
    02:00 +16°C° 0 mm 1 m/S 732 mmHg 62%
    03:00 +15°C° 0 mm 1 m/S 732 mmHg 62%
    04:00 +15°C° 0 mm 1 m/S 732 mmHg 63%
    05:00 +15°C° 0 mm 1 m/S 732 mmHg 64%
    06:00 +17°C° 0 mm 2 m/S 732 mmHg 57%
    07:00 +18°C° 0 mm 2 m/S 733 mmHg 50%
    08:00 +20°C° 0 mm 2 m/S 733 mmHg 43%
    09:00 +22°C° 0 mm 3 m/S 733 mmHg 38%
    10:00 +25°C° 0 mm 3 m/S 733 mmHg 33%
    11:00 +27°C° 0 mm 4 m/S 733 mmHg 28%
    12:00 +28°C° 0 mm 4 m/S 733 mmHg 26%
    13:00 +28°C° 0 mm 4 m/S 733 mmHg 24%
    14:00 +29°C° 0 mm 4 m/S 733 mmHg 22%
    15:00 +29°C° 0 mm 4 m/S 733 mmHg 22%
    16:00 +29°C° 0 mm 4 m/S 732 mmHg 23%
    17:00 +28°C° 0 mm 5 m/S 732 mmHg 23%
    18:00 +26°C° 0 mm 4 m/S 733 mmHg 27%
    19:00 +24°C° 0 mm 3 m/S 733 mmHg 32%
    20:00 +21°C° 0 mm 3 m/S 733 mmHg 36%
    21:00 +20°C° 0 mm 2 m/S 733 mmHg 38%
    22:00 +19°C° 0 mm 2 m/S 733 mmHg 40%
    23:00 +18°C° 0 mm 2 m/S 734 mmHg 41%

    24 August, Donnerstag

    Zeit Temperatur Niederschläge Wind Luftdruck Luftfeuchtigkeit
    00:00 +18°C° 0 mm 2 m/S 734 mmHg 43%
    01:00 +17°C° 0 mm 2 m/S 734 mmHg 45%
    02:00 +17°C° 0 mm 2 m/S 734 mmHg 47%
    03:00 +16°C° 0 mm 1 m/S 734 mmHg 49%
    04:00 +16°C° 0 mm 1 m/S 734 mmHg 51%
    05:00 +15°C° 0 mm 1 m/S 734 mmHg 53%
    06:00 +18°C° 0 mm 1 m/S 734 mmHg 48%
    07:00 +19°C° 0 mm 2 m/S 734 mmHg 43%
    08:00 +21°C° 0 mm 2 m/S 735 mmHg 38%
    09:00 +23°C° 0 mm 2 m/S 735 mmHg 35%
    10:00 +25°C° 0 mm 2 m/S 735 mmHg 31%
    11:00 +27°C° 0 mm 3 m/S 735 mmHg 28%
    12:00 +28°C° 0 mm 3 m/S 735 mmHg 26%
    13:00 +29°C° 0 mm 3 m/S 735 mmHg 23%
    14:00 +30°C° 0 mm 3 m/S 735 mmHg 21%
    15:00 +30°C° 0 mm 3 m/S 735 mmHg 21%
    16:00 +29°C° 0 mm 3 m/S 735 mmHg 21%
    17:00 +29°C° 0 mm 3 m/S 735 mmHg 21%
    18:00 +27°C° 0 mm 3 m/S 735 mmHg 26%
    19:00 +24°C° 0 mm 2 m/S 735 mmHg 31%
    20:00 +21°C° 0 mm 2 m/S 735 mmHg 37%
    21:00 +20°C° 0 mm 2 m/S 735 mmHg 40%
    22:00 +19°C° 0 mm 2 m/S 735 mmHg 44%
    23:00 +19°C° 0 mm 1 m/S 736 mmHg 48%

    25 August, Freitag

    Zeit Temperatur Niederschläge Wind Luftdruck Luftfeuchtigkeit
    00:00 +19°C° 0 mm 1 m/S 736 mmHg 50%
    01:00 +18°C° 0 mm 1 m/S 736 mmHg 53%
    02:00 +18°C° 0 mm 1 m/S 736 mmHg 55%
    03:00 +18°C° 0 mm 1 m/S 736 mmHg 57%
    04:00 +18°C° 0 mm 1 m/S 736 mmHg 60%
    05:00 +16°C° 0 mm 1 m/S 736 mmHg 62%
    06:00 +19°C° 0 mm 1 m/S 736 mmHg 56%
    07:00 +21°C° 0 mm 1 m/S 737 mmHg 51%
    08:00 +24°C° 0 mm 1 m/S 737 mmHg 46%
    09:00 +25°C° 0 mm 1 m/S 737 mmHg 39%
    10:00 +27°C° 0 mm 2 m/S 737 mmHg 33%
    11:00 +29°C° 0 mm 3 m/S 737 mmHg 26%
    12:00 +29°C° 0 mm 3 m/S 737 mmHg 24%
    13:00 +30°C° 0 mm 3 m/S 737 mmHg 22%
    14:00 +31°C° 0 mm 3 m/S 737 mmHg 20%
    15:00 +31°C° 0 mm 3 m/S 736 mmHg 21%
    16:00 +32°C° 0 mm 4 m/S 736 mmHg 21%
    17:00 +30°C° 0 mm 4 m/S 736 mmHg 22%
    18:00 +28°C° 0 mm 3 m/S 736 mmHg 29%
    19:00 +25°C° 0 mm 3 m/S 736 mmHg 35%
    20:00 +21°C° 0 mm 2 m/S 736 mmHg 42%
    21:00 +20°C° 0 mm 2 m/S 736 mmHg 48%
    22:00 +19°C° 0 mm 2 m/S 737 mmHg 53%
    23:00 +18°C° 0 mm 2 m/S 737 mmHg 59%

    26 August, Samstag

    Zeit Temperatur Niederschläge Wind Luftdruck Luftfeuchtigkeit
    00:00 +19°C° 0 mm 1 m/S 737 mmHg 61%
    01:00 +19°C° 0 mm 1 m/S 736 mmHg 64%
    02:00 +18°C° 0 mm 1 m/S 736 mmHg 67%
    03:00 +18°C° 0 mm 1 m/S 736 mmHg 68%
    04:00 +18°C° 0 mm 1 m/S 736 mmHg 69%
    05:00 +16°C° 0 mm 1 m/S 736 mmHg 70%
    06:00 +19°C° 0 mm 1 m/S 737 mmHg 63%
    07:00 +22°C° 0 mm 1 m/S 737 mmHg 55%
    08:00 +24°C° 0 mm 1 m/S 737 mmHg 48%
    09:00 +25°C° 0 mm 2 m/S 737 mmHg 41%
    10:00 +27°C° 0 mm 3 m/S 737 mmHg 34%
    11:00 +29°C° 0 mm 3 m/S 737 mmHg 27%
    12:00 +30°C° 0 mm 4 m/S 737 mmHg 26%
    13:00 +32°C° 0 mm 4 m/S 737 mmHg 24%
    14:00 +33°C° 0 mm 4 m/S 736 mmHg 22%
    15:00 +32°C° 0 mm 4 m/S 736 mmHg 24%
    16:00 +30°C° 0 mm 5 m/S 736 mmHg 26%
    17:00 +30°C° 0 mm 5 m/S 736 mmHg 27%
    18:00 +27°C° 0 mm 4 m/S 736 mmHg 36%
    19:00 +25°C° 0 mm 3 m/S 736 mmHg 44%
    20:00 +21°C° 0 mm 3 m/S 736 mmHg 53%
    21:00 +20°C° 0 mm 2 m/S 736 mmHg 58%
    22:00 +19°C° 0 mm 2 m/S 736 mmHg 64%
    23:00 +19°C° 0 mm 1 m/S 736 mmHg 69%
    Mehr zeigen